Location: Columbia
(38.9520°N, 92.3340°W)
Time: 00:47:27
(UTC-05:00)

Meteor 1-4 Rocket - Visible Passes

Search period start: 17 August 2017 00:00
Search period end: 27 August 2017 00:00
Orbit: 454 x 508 km, 81.2° (Epoch: 16 August)

Date Brightness Start Highest point End Pass type
(mag) Time Alt. Az. Time Alt. Az. Time Alt. Az.
24 Aug 5.9 23:17:56 11° N 23:17:56 11° N 23:18:04 10° N visible
25 Aug 5.7 22:52:07 11° N 22:52:07 11° N 22:52:19 10° N visible
26 Aug 5.5 22:26:18 11° NNE 22:26:18 11° NNE 22:26:24 10° NNE visible
